Date,TemperatureHighF,TemperatureAvgF,TemperatureLowF,DewpointHighF,DewpointAvgF,DewpointLowF,HumidityHigh,HumidityAvg,HumidityLow,PressureMaxIn,PressureMinIn,WindSpeedMaxMPH,WindSpeedAvgMPH,GustSpeedMaxMPH,PrecipitationSumIn
2013-3-1,44.1,42.0,38.4,32.0,29.7,25.0,73,62,53,29.82,29.67,18,9,22,0.00
2013-3-2,38.2,35.4,32.0,26.0,23.7,21.0,71,63,55,29.83,29.76,18,9,21,0.00
2013-3-3,38.7,34.5,30.9,23.0,21.3,20.0,70,59,51,29.86,29.75,17,11,25,0.00
2013-3-4,42.3,35.3,29.4,22.0,19.1,16.0,62,53,41,29.99,29.86,21,12,29,0.00
2013-3-5,41.5,36.2,29.8,33.0,25.2,19.0,80,65,49,30.05,29.80,16,5,19,0.00
2013-3-6,41.5,37.8,34.3,37.0,35.2,30.0,97,90,67,29.91,29.56,30,19,44,0.89
2013-3-7,48.2,42.7,37.6,31.0,27.9,26.0,73,57,44,30.09,29.91,24,11,28,0.00
2013-3-8,47.5,42.4,36.4,30.0,27.1,23.0,70,55,48,30.20,30.07,26,12,34,0.00
2013-3-9,53.2,44.3,37.4,32.0,26.4,22.0,69,51,30,30.29,30.20,15,5,22,0.00
2013-3-10,56.6,44.2,35.8,41.0,33.8,21.0,93,69,26,30.32,30.21,10,4,16,0.00
2013-3-11,55.8,46.8,41.4,49.0,44.1,40.0,97,90,78,30.23,29.95,12,6,24,0.00
2013-3-12,58.3,51.8,43.9,53.0,46.1,33.0,98,82,58,29.95,29.67,28,11,39,1.06
2013-3-13,49.2,42.6,34.5,33.0,27.9,19.0,86,58,31,30.01,29.85,22,9,34,0.00
2013-3-14,43.8,38.1,33.4,21.0,18.0,14.0,61,45,31,30.07,29.96,27,14,36,0.00
2013-3-15,56.1,43.8,32.9,32.0,24.0,19.0,69,47,31,30.05,29.74,14,5,23,0.00
2013-3-16,50.5,44.5,38.3,42.0,36.7,32.0,87,75,56,29.89,29.62,19,5,22,0.00
2013-3-17,39.6,38.1,35.9,34.0,30.6,25.0,89,75,58,30.24,29.88,16,8,19,0.00
2013-3-18,39.3,37.5,33.7,38.0,30.6,21.0,96,78,54,30.30,29.83,19,10,20,0.29
2013-3-19,56.3,44.9,38.0,42.0,33.1,11.0,97,71,19,29.87,29.68,24,8,29,0.01
2013-3-20,51.7,44.2,38.0,37.0,19.2,12.0,77,39,22,29.96,29.74,21,9,28,0.00
2013-3-21,44.9,35.3,30.9,28.0,16.9,10.0,74,48,35,29.86,29.70,21,12,26,0.00
2013-3-22,45.3,36.7,30.0,23.0,17.7,11.0,57,47,35,29.96,29.84,19,10,29,0.00
2013-3-23,51.1,41.5,31.6,27.0,23.7,21.0,72,51,35,29.99,29.87,19,8,26,0.00
2013-3-24,41.3,37.9,34.9,33.0,25.7,22.0,93,63,50,29.96,29.64,15,6,17,0.01
2013-3-25,35.7,34.3,32.6,35.0,33.3,32.0,98,96,87,29.65,29.47,13,6,14,0.54
2013-3-26,49.6,41.2,33.7,34.0,31.7,26.0,98,72,43,29.92,29.65,15,7,18,0.00
2013-3-27,48.7,44.6,40.0,31.0,29.1,26.0,68,55,42,30.06,29.92,22,11,33,0.00
2013-3-28,48.8,43.9,38.0,33.0,29.8,26.0,71,59,42,30.17,30.04,21,10,26,0.00
2013-3-29,54.3,48.2,42.1,35.0,29.6,27.0,64,50,37,30.21,30.10,14,6,20,0.00
2013-3-30,54.8,47.0,40.3,39.0,33.0,29.0,75,59,39,30.19,30.08,10,3,10,0.00
2013-3-31,53.4,48.9,45.7,50.0,44.1,37.0,97,84,69,30.10,29.71,13,4,28,0.05